Regional Weather Roundup
Issued by NWS

Home | Current Version | Previous Version | Graphics & Text | Print | Product List | Glossary On
Versions: 1 2 3 4 5 6 7 8 9 10 11 12 13 14 15 16 17 18 19 20 21 22 23 24 25 26 27 28 29 30 31 32 33 34 35 36 37 38 39 40 41 42 43 44 45 46 47 48 49 50
000
ASUS43 KMPX 260901
RWRMN
WEATHER ROUNDUP FOR MINNESOTA
NATIONAL WEATHER SERVICE TWIN CITIES/CHANHASSEN MN
400 AM CDT THU MAY 26 2016


NOTE: "FAIR" INDICATES FEW OR NO CLOUDS BELOW 12,000 FEET WITH NO
SIGNIFICANT WEATHER AND/OR OBSTRUCTIONS TO VISIBILITY. N/A MEANS
CURRENT SKY AND/OR WEATHER CONDITIONS ARE NOT AVAILABLE.

MNZ060>063-068>070-261000-
   Twin Cities Metro

CITY           SKY/WX    TMP DP  RH WIND       PRES   REMARKS
TWIN CITIES    TSTM      62  56  80 SE17      29.78F
ST PAUL        LGT RAIN  64  55  72 S14       29.79S
CRYSTAL        CLOUDY    65  56  72 W17       29.77R
BLAINE         LGT RAIN  66  63  88 SW8       29.75F
EDEN PRAIRIE   LGT RAIN  63  55  75 S7        29.78R
SOUTH ST PAUL  CLOUDY    63  57  82 SW7       29.81F
LAKE ELMO      CLOUDY    64  55  72 SW17      29.79F
$$
MNZ001>005-007-008-013>017-022>024-027-028-261000-
   Northwest Minnesota

CITY           SKY/WX    TMP DP  RH WIND       PRES   REMARKS
BEMIDJI        CLOUDY    54  53  98 SE5       29.73F
HALLOCK        MOCLDY    57  55  94 SW12      29.65S
ROSEAU         CLOUDY    57  54  88 S9        29.68F
WARROAD        CLOUDY    57  54  88 SE5       29.69F
THIEF RVR FALL CLOUDY    57  54  88 S7        29.73S
CROOKSTON      CLOUDY    57  57 100 S3          N/A
FOSSTON        CLOUDY    54  52  94 S5        29.73F
DETROIT LAKES  CLOUDY    55  54  94 CALM      29.75R
MOORHEAD       CLEAR     54  52  94 W6        29.75R
PARK RAPIDS    CLOUDY    59  56  89 E6        29.75R
MAHNOMEN       FAIR      53  53  98 NW3       29.73S
$$
MNZ006-009>011-018-025>026-261000-
   North Central Minnesota

CITY           SKY/WX    TMP DP  RH WIND       PRES   REMARKS
BAUDETTE       LGT RAIN  56  53  90 SE8       29.71F
FLAG ISLAND    MOCLDY    57  54  88 S21       29.68F
INTL FALLS     MOCLDY    55  50  83 E7        29.75F
WASKISH        CLOUDY    55  54  94 SE7       29.73R
BIG FORK       CLOUDY    55  52  88 CALM      29.79R
LONGVILLE      FOG       55  54  94 CALM      29.77R VSB 1
GRAND RAPIDS   CLOUDY    52  51  97 E7        29.79S
CRANE LAKE     CLEAR     48  46  93 CALM      29.82R
ORR            PTCLDY    52  46  82 CALM      29.76S
COOK           PTCLDY    52  48  87 SE5       29.79S
WALKER         CLOUDY    56  56  98 E3        29.75F
$$
MNZ012-019>021-037-261000-
   Northeast Minnesota

CITY           SKY/WX    TMP DP  RH WIND       PRES   REMARKS
DULUTH         FOG       44  44 100 E8        29.82F VSB 1/4
ELY            CLOUDY    52  48  87 CALM      29.82S
HIBBING        FOG       48  48 100 SE7       29.79F VSB 3/4
EVELETH        CLOUDY    52  52 100 CALM      29.82S
DULUTH HARBOR  CLOUDY    43  41  93 NE10      29.85S FOG
TWO HARBORS    HAZE      52  46  82 CALM      29.81F VSB 3/4
SILVER BAY     CLOUDY    48  46  93 N3        29.82F
GRAND MARAIS     N/A     52  48  86 E6        29.84S
G MARAIS ARPRT FOG       50  46  87 NE5       29.86R VSB 1/4
$$
MNZ029>031-032-039>041-046>048-054>057-064-261000-
   West Central Minnesota

CITY           SKY/WX    TMP DP  RH WIND       PRES   REMARKS
FERGUS FALLS   FOG       55  55 100 W5        29.73R VSB 1/4
WHEATON        CLOUDY    57  55  94 CALM      29.77R
MORRIS         MOCLDY    55  50  82 W6        29.74F
ALEXANDRIA     CLOUDY    58  49  72 SW3       29.77R
ELBOW LAKE     FAIR      54  53  97 SW7       29.75R
WADENA         CLOUDY    55  55 100 SE5       29.75R FOG
GLENWOOD       MOCLDY    55  52  88 S5        29.78R
APPLETON       MOCLDY    59  54  82 W7        29.75S
ORTONVILLE     PTCLDY    59  52  77 W5        29.76R
MADISON        CLOUDY    61  52  72 W10       29.76S
WILLMAR        FAIR      61  54  77 CALM      29.78F
$$
MNZ033>034-036-042>043-049>051-058-059-261000-
   Central Minnesota

CITY           SKY/WX    TMP DP  RH WIND       PRES   REMARKS
ST CLOUD       CLOUDY    59  59 100 NE3       29.74F FOG
SAUK CENTRE    FAIR      58  56  91 SW5       29.77S
PAYNESVILLE    MOCLDY    62  60  94 S3        29.77F
AITKIN         FOG       55  52  88 CALM      29.76S VSB 3/4
PINE RIVER     FOG       57  57 100 SE7       29.80S VSB 3/4
BRAINERD       CLOUDY    57  57 100 SE6       29.77R FOG
STAPLES        CLOUDY    59  57  94 SE3       29.76S FOG
LONG PRAIRIE   FAIR      59  57  94 SW3       29.77S
LITTLE FALLS   CLOUDY    61  59  94 S5        29.77R FOG
LITCHFIELD     CLOUDY    64  57  77 SW5       29.75F
BUFFALO        CLOUDY    65  63  90 S7        29.76F
MAPLE LAKE     CLOUDY    64  64  97 S3        29.77R
HUTCHINSON     MOCLDY    64  57  79 S7        29.75F
$$
MNZ037-044-045-052-053-261000-
   East Central Minnesota

CITY           SKY/WX    TMP DP  RH WIND       PRES   REMARKS
PRINCETON      FOG       63  63 100 E5        29.77R VSB 1
MORA           FOG       55  54  94 E5        29.79F VSB 3/4
CAMBRIDGE      HAZE      64  55  72 CALM      29.76R VSB 3/4
RUSH CITY      CLOUDY    59  58  97 CALM      29.77S FOG
MOOSE LAKE     FOG       45  43  93 NE3       29.79F VSB 1/2
HINCKLEY       FOG       55  55 100 NE3       29.79S VSB 3/4
CLOQUET        FOG       45  43  93 E7        29.81F VSB 1/4
MCGREGOR       CLOUDY    50  50 100 E6        29.78F VSB 3/4
$$
MNZ071>073-080-081-089-090-097-098-261000-
   Southwest Minnesota

CITY           SKY/WX    TMP DP  RH WIND       PRES   REMARKS
MONTEVIDEO     MOCLDY    61  52  72 S7        29.79R
GRANITE FALLS  MOCLDY    62  53  72 NW5       29.79F
CANBY          CLOUDY    63  56  79 W14       29.78S
MARSHALL       CLOUDY    62  52  69 N7        29.76F
REDWOOD FALLS  CLOUDY    63  55  75 E5        29.74F
OLIVIA         MOCLDY    61  54  77 SE6       29.74F
PIPESTONE      CLOUDY    61  55  82 NW8       29.79F
WINDOM         CLOUDY    59  55  88 CALM      29.78R
WORTHINGTON    CLOUDY    60  55  83 W7        29.80S
JACKSON        CLOUDY    61  52  72 SE3       29.79R
TRACY          MOCLDY    63  54  73 CALM      29.76F
SLAYTON        CLOUDY    62  52  69 W10       29.78F
$$
MNZ065>067-074>077-082>085-091>093-261000-
   South Central Minnesota

CITY           SKY/WX    TMP DP  RH WIND       PRES   REMARKS
MANKATO        CLOUDY    61  55  82 E8        29.77F
NEW ULM        CLOUDY    59  55  88 SE5       29.73F
ST JAMES       CLOUDY    55  52  88 SE7       29.77F
FAIRMONT       CLOUDY    61  48  63 E13       29.77F
OWATONNA       RAIN      57  55  94 N6        29.83F
WASECA         RAIN      59  55  88 NE10      29.81F
ALBERT LEA     CLOUDY    57  57 100 N5        29.83R
$$
MNZ078>079-086>088-094>096-261000-
   Southeast Minnesota

CITY           SKY/WX    TMP DP  RH WIND       PRES   REMARKS
ROCHESTER      TSTM      57  55  93 NW28G41   29.86R VSB 3/4
RED WING       CLOUDY    66  61  82 NW16G26   29.79R
STANTON        RAIN      60  56  86 SE6       29.83R
DODGE CENTER   TSTM      57  55  94 NW21G26   29.83R
WINONA         CLOUDY    63  61  94 CALM      29.79S FOG
AUSTIN         TSTM      59  54  82 NW10G21   29.78F
PRESTON        CLOUDY    64  59  86 SE3       29.80S
$$
ABBREVIATIONS USED IN REMARKS
   TC - TEMPERATURES IN CELSIUS
  WCI - WIND CHILL INDEX
   HX - HEAT INDEX
  VSB - VISIBILITY
$$



USA.gov is the U.S. government's official web portal to all federal, state and local government web resources and services.